Theta_e
337 332 333 333 333 333 329 327 317 315 320 326 329 327 322 324 326 324 324 324 325 326 327 325 324 329 331 331 332 330 328 327 326 324 323 324 316 311 309 309 313 323 322
338 333 332 332 333 333 330 327 322 314 318 320 322 321 328 326 324 324 323 321 318 316 320 318 321 324 326 328 328 327 326 322 319 320 319 320 312 309 309 308 311 324 323
337 333 332 332 332 332 330 326 325 315 316 318 318 324 329 327 326 322 319 317 316 316 325 317 317 322 325 323 325 324 322 319 316 317 317 315 316 309 306 307 312 319 323
337 334 332 331 330 331 330 326 326 320 317 323 321 318 319 324 324 323 319 316 326 327 325 318 316 318 320 326 326 325 318 314 315 316 318 317 315 313 307 308 308 314 318
336 333 331 331 329 329 329 325 326 322 316 323 328 324 319 325 325 325 323 321 324 321 314 315 315 318 321 328 326 324 319 314 314 316 315 314 315 316 313 306 306 308 312
336 335 333 330 329 327 327 324 325 323 318 314 326 328 326 327 327 324 323 321 321 317 311 311 313 315 324 326 326 324 322 314 313 313 313 314 313 313 311 307 305 307 309
333 335 333 329 329 327 327 325 324 324 321 316 318 327 327 325 323 323 324 323 320 317 311 310 311 313 318 319 319 316 314 314 313 313 314 314 313 312 312 310 307 307 309
332 331 332 330 328 329 327 326 325 324 324 320 316 318 322 321 319 322 324 323 321 318 314 311 310 310 311 311 311 311 311 311 311 311 311 313 314 313 312 312 310 307 306
331 330 326 328 328 329 329 328 327 325 325 324 320 316 317 316 318 320 321 323 321 317 315 315 313 312 310 310 310 310 310 310 310 310 310 311 312 312 312 312 311 311 309
328 327 326 328 326 326 328 329 328 328 327 326 325 322 318 317 317 318 318 320 320 318 316 315 315 315 314 312 311 310 310 310 310 310 310 310 311 313 313 314 313 312 311
331 329 329 327 325 328 329 326 327 328 329 328 327 326 324 321 319 317 317 320 318 318 318 316 315 314 314 313 314 314 314 313 314 314 311 311 313 313 314 314 313 313 311
330 327 329 328 327 327 326 326 326 328 327 327 328 329 327 326 323 321 320 322 322 322 322 321 319 316 316 316 318 317 315 315 316 315 315 314 314 313 315 320 319 316 314
327 330 330 330 330 330 329 328 328 330 330 330 328 326 326 328 326 325 323 323 324 324 322 321 321 320 321 320 321 322 322 320 318 316 316 316 316 316 315 319 321 321 320
325 325 328 329 330 332 331 330 330 331 326 332 332 334 334 332 327 328 329 328 327 326 325 323 323 322 322 321 320 320 321 322 322 321 319 319 319 318 318 317 321 322 322
320 320 321 321 323 327 332 331 330 331 331 331 329 335 333 331 329 329 328 327 328 328 328 328 327 326 326 325 325 324 323 322 322 323 323 322 323 323 323 323 322 322 323
319 320 321 321 320 323 331 332 330 330 332 332 330 327 332 329 330 330 329 328 327 327 326 326 327 326 326 326 325 326 325 326 325 324 324 324 325 325 325 325 325 325 324
320 320 321 321 320 322 329 333 332 331 333 333 331 333 331 327 330 329 329 328 328 327 327 326 327 326 326 325 325 325 324 325 324 325 325 325 325 326 325 324 324 324 324
320 320 320 320 320 320 325 329 329 329 330 330 332 331 330 330 330 329 329 328 329 328 327 327 326 326 325 325 325 325 324 324 323 323 323 323 323 323 322 323 322 323 323
320 319 319 319 319 319 319 319 320 322 328 329 331 331 330 330 328 328 328 328 327 327 327 327 326 327 326 325 325 324 324 323 322 322 322 321 322 322 322 321 322 322 322
319 319 319 318 317 317 316 317 317 317 320 324 328 329 327 328 327 328 327 327 327 326 326 325 325 325 324 324 324 323 322 321 321 321 321 321 321 321 320 321 321 320 320
318 317 315 315 314 314 313 313 314 317 318 321 325 327 326 327 325 326 326 326 326 327 325 324 324 324 323 323 323 322 322 320 320 319 320 321 320 319 321 320 319 320 320
315 314 313 312 312 312 313 313 316 321 325 325 325 324 325 325 326 326 325 325 326 325 325 324 323 322 321 321 321 320 318 317 317 320 318 317 317 318 318 318 318 318 318
313 312 312 312 312 313 315 317 325 324 324 323 322 322 324 325 325 323 322 322 322 321 321 320 320 320 319 319 318 316 317 316 315 315 315 316 317 315 317 314 315 316 317
311 311 311 312 312 314 316 319 322 321 321 321 321 321 321 321 320 319 320 319 316 315 315 313 312 311 311 312 311 312 314 314 314 313 311 309 304 302 301 300 303 307 309
310 311 311 311 310 312 316 318 322 321 318 318 319 318 318 318 316 308 308 308 307 307 307 306 304 303 303 303 303 303 304 307 311 311 310 300 298 298 297 298 299 299 301
310 310 309 309 309 309 310 315 318 318 316 316 316 316 316 308 306 302 300 299 299 299 299 299 298 298 299 299 299 299 299 299 299 298 298 296 296 297 297 297 297 297 300
Wind_Speed
3 4 4 5 5 5 7 8 8 7 9 9 8 6 5 5 5 4 4 3 2 3 4 3 3 5 8 6 5 2 6 7 8 7 6 6 6 5 5 6 8 10 7
3 4 4 4 5 5 5 6 7 7 7 7 7 6 5 5 5 2 1 1 2 3 4 5 3 3 4 5 4 2 5 7 6 5 6 6 6 3 3 4 6 9 5
5 4 4 4 4 4 4 5 6 6 6 6 7 10 6 3 2 1 1 2 2 4 3 5 5 6 4 2 1 3 5 6 5 6 6 6 7 4 3 2 5 6 6
4 4 6 4 4 4 4 4 5 5 6 7 6 5 6 3 1 3 5 7 8 5 1 4 5 6 5 3 3 3 5 5 5 5 7 7 7 6 5 2 1 6 5
6 6 5 3 3 4 3 4 4 4 4 5 5 5 5 3 3 2 3 4 6 4 0 3 4 5 3 4 2 1 4 5 4 3 5 7 5 6 7 5 5 3 4
8 5 3 3 3 3 3 3 3 3 3 4 6 5 5 5 3 2 4 2 1 2 1 4 5 6 6 3 2 2 3 4 5 5 5 5 6 6 7 8 7 5 5
6 5 5 4 4 4 3 2 2 2 3 2 5 6 5 3 3 4 5 6 4 3 1 1 4 5 6 5 4 4 4 4 6 7 6 6 6 6 7 7 7 8 7
2 3 5 6 6 5 4 3 2 1 1 1 3 5 5 4 5 6 5 4 5 3 2 3 3 4 5 6 7 7 6 6 7 8 9 7 6 7 8 8 8 9 10
3 1 2 5 7 7 6 5 4 3 3 2 2 4 6 6 5 5 6 6 8 7 6 5 6 6 6 7 7 7 7 8 8 9 11 11 10 9 10 11 10 10 12
2 1 3 2 3 5 7 7 7 6 5 5 4 4 5 7 7 7 7 8 9 9 8 8 8 8 8 9 9 10 10 10 10 10 11 12 12 11 12 13 13 12 12
4 2 3 4 5 5 6 8 8 6 6 7 7 7 7 7 8 9 8 7 7 8 9 10 10 10 10 10 10 10 11 10 10 10 11 12 13 13 14 15 16 17 16
6 5 5 5 6 8 9 9 8 9 7 8 9 10 10 10 10 10 11 10 8 8 10 12 12 12 13 12 10 11 12 11 12 11 11 12 14 15 16 16 17 17 19
5 7 8 8 8 9 10 11 10 10 10 9 9 9 10 10 11 10 11 11 11 12 13 13 12 12 12 13 13 12 12 13 14 15 15 15 16 17 18 18 20 21 20
6 7 9 12 12 11 10 12 13 13 12 11 11 11 11 12 10 13 14 12 13 13 13 12 12 12 13 13 13 14 15 16 16 17 18 19 19 20 20 21 20 22 24
12 11 10 11 13 13 13 12 14 14 13 12 12 12 12 13 14 14 16 16 16 15 15 14 14 14 14 14 15 16 17 18 19 20 19 19 20 20 21 22 23 23 25
12 11 11 10 9 12 14 14 14 14 13 15 14 12 15 15 16 15 16 17 17 16 16 17 17 17 17 17 18 19 20 19 19 21 21 21 20 19 21 22 23 25 26
12 12 13 15 13 12 14 16 16 16 16 16 15 16 15 13 17 18 18 18 18 17 18 19 20 20 20 19 20 20 21 22 23 23 24 24 23 22 23 23 26 26 26
17 17 16 15 15 14 15 18 18 19 19 18 16 16 18 18 15 16 17 19 19 20 20 20 20 21 20 20 22 23 24 24 25 25 26 25 27 27 26 23 24 26 26
20 20 17 16 17 17 18 18 18 18 20 19 17 17 18 18 17 18 16 16 18 19 20 20 21 22 20 21 23 23 25 26 27 26 26 23 19 17 16 17 19 19 20
19 19 18 19 20 21 23 22 20 19 19 20 21 16 18 19 18 18 16 17 18 19 20 22 24 23 23 23 23 24 24 24 25 27 24 22 18 16 22 20 17 19 20
16 17 18 19 22 22 21 20 19 18 18 18 18 16 15 18 18 19 21 17 19 17 19 20 20 21 22 21 21 23 22 24 21 18 13 10 15 17 14 18 19 19 19
13 13 14 13 13 13 12 13 13 14 14 11 12 15 17 17 16 17 20 18 18 19 20 20 20 19 19 19 17 18 18 21 12 6 15 15 16 11 13 13 15 17 17
8 8 9 10 10 10 8 7 8 10 10 11 12 13 14 13 13 16 17 18 19 19 19 19 19 19 20 20 19 13 7 6 20 12 16 13 14 17 13 16 15 15 14
5 7 7 7 7 6 5 6 11 12 13 12 12 12 13 14 15 17 17 15 14 14 15 15 14 13 13 15 13 16 12 16 9 16 18 22 22 20 17 14 13 17 20
5 4 3 4 4 4 3 5 12 12 12 13 13 12 12 13 12 9 8 8 8 9 10 10 11 11 11 11 12 11 11 12 17 15 25 22 17 13 14 10 8 12 15
1 1 1 2 3 3 3 3 6 10 11 12 13 13 11 9 8 6 6 6 7 8 9 10 10 10 10 10 10 10 9 7 9 9 13 19 20 16 11 18 14 13 12
Wind_Direction
163 139 137 140 123 104 69 69 67 91 119 130 130 123 122 122 110 110 131 139 145 110 91 99 128 101 92 102 71 51 18 353 346 355 358 10 359 2 16 55 73 67 72
197 158 158 148 135 119 70 66 66 83 113 129 130 126 115 111 105 110 167 218 214 219 222 224 182 155 109 77 60 23 342 344 347 357 12 33 29 10 22 55 93 102 105
177 157 168 155 145 129 83 75 68 77 104 121 133 138 146 145 118 6 49 156 148 140 111 137 156 165 132 138 113 32 4 2 3 23 26 38 19 15 17 5 125 141 151
183 171 169 159 153 140 107 86 80 77 109 118 117 150 178 167 27 63 84 107 88 108 113 142 146 151 152 134 113 53 13 7 10 5 354 357 7 9 14 12 83 182 209
168 150 159 165 162 149 130 107 100 84 112 149 141 115 134 130 61 43 47 87 155 181 71 162 147 159 154 153 171 14 2 360 13 356 354 339 329 336 336 323 321 263 225
187 185 194 200 194 178 155 125 119 102 101 160 171 158 142 148 183 274 321 339 1 298 298 146 161 161 175 197 219 294 314 327 325 327 337 335 323 322 322 322 307 280 285
189 211 226 217 215 213 196 166 140 123 100 142 187 189 193 213 232 262 287 299 316 336 201 173 176 188 209 218 239 269 282 289 300 303 312 326 329 314 318 320 301 283 272
195 203 220 224 220 222 224 221 208 194 149 127 194 206 217 239 271 255 274 302 324 315 288 253 240 233 243 255 264 271 280 285 289 292 298 303 313 313 315 318 303 286 277
186 265 251 236 233 231 233 231 232 237 243 257 249 230 234 244 244 257 272 281 300 318 319 294 265 267 263 268 276 283 286 287 289 290 291 297 302 303 302 303 306 295 283
180 296 289 255 238 252 253 243 238 237 243 251 261 261 254 252 249 258 274 274 281 298 307 319 311 305 287 285 288 289 289 288 285 283 286 291 292 295 296 297 300 299 294
198 231 284 301 292 287 298 256 233 233 243 249 256 262 262 264 260 259 261 267 274 287 295 302 303 301 299 301 303 300 297 293 290 296 286 286 289 292 294 294 298 303 302
229 257 276 293 313 304 296 288 251 248 250 250 253 257 262 263 263 259 261 265 273 285 292 299 297 293 295 299 301 299 300 294 293 298 300 293 292 293 291 282 285 289 290
268 249 260 283 297 301 309 295 299 264 261 264 261 251 258 256 256 261 262 270 284 291 289 289 295 291 296 294 297 299 302 298 298 301 301 299 297 296 292 283 280 285 285
232 246 243 260 269 275 291 299 287 293 286 265 269 269 266 262 268 273 274 279 284 287 289 289 290 292 291 296 295 295 299 301 303 303 303 301 298 294 291 290 280 280 285
262 266 260 264 269 264 270 289 282 274 287 299 283 270 263 269 268 264 270 277 281 286 287 290 291 291 292 295 298 301 301 299 298 299 297 295 294 294 294 292 290 281 278
270 246 247 258 265 253 252 266 281 274 281 275 277 296 266 272 270 266 264 266 272 277 281 285 290 294 296 299 302 303 306 305 301 294 292 291 290 290 292 293 294 293 288
232 239 236 257 265 239 237 253 267 274 274 277 287 287 282 272 276 268 268 267 269 270 273 278 286 289 290 295 296 297 300 299 301 303 303 298 293 292 292 292 295 294 294
229 235 242 260 270 254 242 243 251 258 264 267 268 266 270 276 283 278 273 269 271 270 271 277 280 283 286 289 293 297 296 295 295 296 296 298 302 304 304 301 303 292 283
221 231 241 252 260 265 259 253 252 254 254 257 256 257 268 270 278 275 273 272 271 272 269 272 273 276 279 282 286 289 291 293 296 297 300 300 304 305 317 319 318 316 308
225 234 245 256 261 267 268 263 260 255 252 251 253 244 253 257 260 267 267 266 268 273 272 270 270 273 279 282 287 287 291 291 291 290 291 285 287 297 301 302 310 306 309
234 247 260 271 279 274 268 264 256 249 245 244 246 244 248 255 263 268 268 271 269 268 275 277 276 275 278 282 286 287 290 294 296 293 289 298 300 303 304 303 308 312 312
246 273 288 287 285 283 276 259 241 231 232 236 241 242 246 257 260 268 275 275 274 275 275 277 276 280 280 281 286 300 305 300 298 273 289 298 308 299 307 311 319 312 314
266 275 282 289 290 289 282 235 202 214 220 227 239 250 253 254 265 272 273 272 274 274 272 274 274 273 271 270 275 279 296 274 301 309 308 296 291 305 300 311 313 319 309
264 285 292 296 302 299 280 222 209 223 232 239 243 255 266 273 274 275 273 271 273 268 270 271 274 274 271 271 269 261 249 274 292 301 296 297 306 313 311 326 307 288 289
279 287 296 303 307 300 259 218 216 230 236 238 245 252 260 268 267 265 264 268 271 271 273 275 278 280 278 276 277 272 263 257 259 273 287 307 316 345 349 359 313 305 301
252 279 282 303 303 287 264 239 221 221 219 227 238 247 250 252 254 255 259 261 264 268 271 273 274 275 275 276 278 280 279 266 273 293 303 316 324 338 345 334 337 330 322